Location: Pace/Milton
(30.6162°N, 87.1503°W)
Time: 10:04:11
(UTC-06:00)

Envisat - Pass Details

Date: 10 December 2021
Orbit: 764 x 766 km, 98.2° (Epoch: 23 January)

Event Time Altitude Azimuth Distance (km) Brightness Sun altitude
Rises 05:53:00 0° 350° (N) 3,233 5.9 -9.1°
Reaches altitude 10° 05:56:05 10° 330° (NNW) 2,303 5.0 -8.5°
Maximum altitude 05:59:11 17° 292° (WNW) 1,888 4.4 -7.9°
Drops below altitude 10° 06:02:16 10° 254° (WSW) 2,295 5.0 -7.3°
Sets 06:05:22 0° 234° (SW) 3,217 5.9 -6.7°
